Flag for United Kingdom Weather past 2 weeks in Chesterfield, England, United Kingdom

Now
41 °F

Quite cool.


Feels Like: 37 °F
Forecast: 32 / 58 °F
Wind: 5 mph from Northeast

Location: Nottingham Weather Centre

Current Time: Apr 19, 2015 at 6:14:36 AM

Latest Report: Apr 19, 2015 at 5:00 AM


Visibility: 31 mi

Pressure: 30.35 "Hg

Humidity: 77%

Dew point: 34 °F

Location of ChesterfieldLocation

Historic Weather in Chesterfield — Graph

°F

Chesterfield temperature yesterday

Maximum temperature yesterday: 56 °F (at 3:00 PM)
Minimum temperature yesterday: 37 °F (at 6:00 AM)
Average temperature yesterday: 45 °F

Past Weeks' High & Low Weather Summary

 TemperatureHumidityPressure
High66 °F (Apr 10, 4:00 PM)100% (Apr 7, 8:00 AM)30.64 "Hg (Apr 7, 8:00 AM)
Low34 °F (Apr 13, 7:00 AM)37% (Apr 11, 4:00 PM)29.78 "Hg (Apr 11, 5:00 AM)
Average50 °F73%30.27 "Hg
* Reported Apr 4 5:00 AM — Apr 19 4:00 AM, Chesterfield, Weather by CustomWeather, © 2015

Note: Actual official high and low records may vary slightly from our data, if they occured in-between our weather recording intervals... More about our weather records

Advertising

Chesterfield weather history for previous 24 hours

 ConditionsComfort  
Time TempWeatherWind HumidityBarometerVisibility
4:00 AM
Sun, Apr 19
41 °FQuite cool.8 mph74%30.37 "Hg31 mi
3:00 AM41 °FSmoke.8 mph74%30.39 "Hg4 mi
2:00 AM41 °FSmoke.9 mph74%30.41 "Hg9 mi
1:00 AM40 °FQuite cool.8 mph77%30.43 "Hg14 mi
12:00 AM39 °FChilly.6 mph82%30.43 "Hg11 mi
11:00 PM
Sat, Apr 18
40 °FQuite cool.12 mph77%30.44 "Hg14 mi
10:00 PM42 °FSmoke.13 mph78%30.44 "Hg4 mi
9:00 PM43 °FQuite cool.12 mph77%30.44 "Hg15 mi
8:00 PM46 °FCool.14 mph72%30.42 "Hg18 mi
7:00 PM49 °FSmoke.13 mph62%30.41 "Hg5 mi
6:00 PM52 °FCool.14 mph57%30.41 "Hg18 mi
5:00 PM54 °FCool.14 mph50%30.40 "Hg15 mi
4:00 PM55 °FRefreshingly cool.14 mph50%30.41 "Hg18 mi
3:00 PM56 °FRefreshingly cool.13 mph47%30.42 "Hg31 mi
2:00 PM54 °FCool.15 mph53%30.43 "Hg7 mi
1:00 PM53 °FCool.15 mph55%30.44 "Hg17 mi
12:00 PM52 °FCool.14 mph59%30.45 "Hg22 mi
11:00 AM49 °FCool.13 mph68%30.45 "Hg7 mi
10:00 AM47 °FCool.12 mph74%30.46 "Hg9 mi
9:00 AM44 °FSmoke.15 mph82%30.46 "Hg9 mi
8:00 AM41 °FQuite cool.12 mph85%30.46 "Hg6 mi
7:00 AM38 °FChilly.7 mph94%30.44 "Hg12 mi
6:00 AM37 °FSmoke.9 mph93%30.42 "Hg9 mi
Weather by CustomWeather, © 2015

See weather overviewHow to use our weather pages